Year,Month,Day,Hour,Minute,Value (Times are PST for temperature in C)
2022,01,02,00,00,0.00
2022,01,02,00,01,-0.10
2022,01,02,00,02,-0.10
2022,01,02,00,03,-0.10
2022,01,02,00,04,-0.20
2022,01,02,00,05,-0.20
2022,01,02,00,06,-0.20
2022,01,02,00,07,-0.20
2022,01,02,00,08,-0.20
2022,01,02,00,09,-0.30
2022,01,02,00,10,-0.30
2022,01,02,00,11,-0.30
2022,01,02,00,12,-0.30
2022,01,02,00,13,-0.30
2022,01,02,00,14,-0.30
2022,01,02,00,15,-0.30
2022,01,02,00,16,-0.30
2022,01,02,00,17,-0.30
2022,01,02,00,18,-0.30
2022,01,02,00,19,-0.30
2022,01,02,00,20,-0.30
2022,01,02,00,21,-0.40
2022,01,02,00,22,-0.40
2022,01,02,00,23,-0.40
2022,01,02,00,24,-0.40
2022,01,02,00,25,-0.40
2022,01,02,00,26,-0.40
2022,01,02,00,27,-0.30
2022,01,02,00,28,-0.30
2022,01,02,00,29,-0.30
2022,01,02,00,30,-0.30
2022,01,02,00,31,-0.30
2022,01,02,00,32,-0.30
2022,01,02,00,33,-0.20
2022,01,02,00,34,-0.20
2022,01,02,00,35,-0.10
2022,01,02,00,36,-0.10
2022,01,02,00,37,0.00
2022,01,02,00,38,0.10
2022,01,02,00,39,0.10
2022,01,02,00,40,0.20
2022,01,02,00,41,0.20
2022,01,02,00,42,0.10
2022,01,02,00,43,0.10
2022,01,02,00,44,0.10
2022,01,02,00,45,0.10
2022,01,02,00,46,0.10
2022,01,02,00,47,0.00
2022,01,02,00,48,0.00
2022,01,02,00,49,-0.10
2022,01,02,00,50,-0.10
2022,01,02,00,51,-0.20
2022,01,02,00,52,-0.20
2022,01,02,00,53,-0.30
2022,01,02,00,54,-0.30
2022,01,02,00,55,-0.30
2022,01,02,00,56,-0.30
2022,01,02,00,57,-0.30
2022,01,02,00,58,-0.40
2022,01,02,00,59,-0.40
2022,01,02,01,00,-0.40
2022,01,02,01,01,-0.30
2022,01,02,01,02,-0.30
2022,01,02,01,03,-0.30
2022,01,02,01,04,-0.40
2022,01,02,01,05,-0.30
2022,01,02,01,06,-0.30
2022,01,02,01,07,-0.30
2022,01,02,01,08,-0.30
2022,01,02,01,09,-0.30
2022,01,02,01,10,-0.30
2022,01,02,01,11,-0.30
2022,01,02,01,12,-0.30
2022,01,02,01,13,-0.30
2022,01,02,01,14,-0.30
2022,01,02,01,15,-0.30
2022,01,02,01,16,-0.30
2022,01,02,01,17,-0.30
2022,01,02,01,18,-0.30
2022,01,02,01,19,-0.30
2022,01,02,01,20,-0.30
2022,01,02,01,21,-0.20
2022,01,02,01,22,-0.20
2022,01,02,01,23,-0.20
2022,01,02,01,24,-0.20
2022,01,02,01,25,-0.20
2022,01,02,01,26,-0.20
2022,01,02,01,27,-0.20
2022,01,02,01,28,-0.20
2022,01,02,01,29,-0.20
2022,01,02,01,30,-0.20
2022,01,02,01,31,-0.20
2022,01,02,01,32,-0.10
2022,01,02,01,33,-0.10
2022,01,02,01,34,-0.10
2022,01,02,01,35,-0.10
2022,01,02,01,36,-0.10
2022,01,02,01,37,-0.10
2022,01,02,01,38,-0.10
2022,01,02,01,39,-0.10
2022,01,02,01,40,-0.10
2022,01,02,01,41,-0.10
2022,01,02,01,42,-0.10
2022,01,02,01,43,-0.10
2022,01,02,01,44,-0.10
2022,01,02,01,45,0.00
2022,01,02,01,46,0.00
2022,01,02,01,47,0.00
2022,01,02,01,48,0.00
2022,01,02,01,49,0.10
2022,01,02,01,50,0.10
2022,01,02,01,51,0.10
2022,01,02,01,52,0.10
2022,01,02,01,53,0.10
2022,01,02,01,54,0.10
2022,01,02,01,55,0.10
2022,01,02,01,56,0.10
2022,01,02,01,57,0.10
2022,01,02,01,58,0.10
2022,01,02,01,59,0.10
2022,01,02,02,00,0.10
2022,01,02,02,01,0.10
2022,01,02,02,02,0.20
2022,01,02,02,03,0.20
2022,01,02,02,04,0.20
2022,01,02,02,05,0.20
2022,01,02,02,06,0.40
2022,01,02,02,07,0.50
2022,01,02,02,08,0.80
2022,01,02,02,09,1.00
2022,01,02,02,10,1.20
2022,01,02,02,11,1.40
2022,01,02,02,12,1.50
2022,01,02,02,13,1.70
2022,01,02,02,14,1.80
2022,01,02,02,15,1.90
2022,01,02,02,16,2.00
2022,01,02,02,17,2.10
2022,01,02,02,18,2.20
2022,01,02,02,19,2.30
2022,01,02,02,20,2.40
2022,01,02,02,21,2.40
2022,01,02,02,22,2.40
2022,01,02,02,23,2.40
2022,01,02,02,24,2.40
2022,01,02,02,25,2.50
2022,01,02,02,26,2.60
2022,01,02,02,27,2.70
2022,01,02,02,28,2.80
2022,01,02,02,29,2.80
2022,01,02,02,30,2.80
2022,01,02,02,31,2.80
2022,01,02,02,32,2.80
2022,01,02,02,33,2.80
2022,01,02,02,34,2.80
2022,01,02,02,35,2.80
2022,01,02,02,36,2.80
2022,01,02,02,37,2.70
2022,01,02,02,38,2.80
2022,01,02,02,39,2.80
2022,01,02,02,40,2.80
2022,01,02,02,41,2.90
2022,01,02,02,42,3.10
2022,01,02,02,43,3.30
2022,01,02,02,44,3.60
2022,01,02,02,45,3.90
2022,01,02,02,46,4.30
2022,01,02,02,47,4.60
2022,01,02,02,48,5.00
2022,01,02,02,49,5.40
2022,01,02,02,50,5.70
2022,01,02,02,51,6.10
2022,01,02,02,52,6.60
2022,01,02,02,53,6.90
2022,01,02,02,54,7.00
2022,01,02,02,55,7.20
2022,01,02,02,56,7.30
2022,01,02,02,57,7.40
2022,01,02,02,58,7.60
2022,01,02,02,59,7.70
2022,01,02,03,00,7.70
2022,01,02,03,01,7.80
2022,01,02,03,02,7.80
2022,01,02,03,03,7.80
2022,01,02,03,04,7.90
2022,01,02,03,05,7.90
2022,01,02,03,06,7.90
2022,01,02,03,07,7.80
2022,01,02,03,08,7.80
2022,01,02,03,09,7.80
2022,01,02,03,10,7.80
2022,01,02,03,11,7.80
2022,01,02,03,12,7.80
2022,01,02,03,13,7.80
2022,01,02,03,14,7.80
2022,01,02,03,15,7.70
2022,01,02,03,16,7.70
2022,01,02,03,17,7.80
2022,01,02,03,18,7.80
2022,01,02,03,19,7.80
2022,01,02,03,20,7.80
2022,01,02,03,21,7.70
2022,01,02,03,22,7.70
2022,01,02,03,23,7.70
2022,01,02,03,24,7.70
2022,01,02,03,25,7.70
2022,01,02,03,26,7.70
2022,01,02,03,27,7.80
2022,01,02,03,28,7.70
2022,01,02,03,29,7.80
2022,01,02,03,30,7.80
2022,01,02,03,31,7.80
2022,01,02,03,32,7.80
2022,01,02,03,33,7.80
2022,01,02,03,34,7.70
2022,01,02,03,35,7.60
2022,01,02,03,36,7.40
2022,01,02,03,37,7.20
2022,01,02,03,38,7.00
2022,01,02,03,39,6.90
2022,01,02,03,40,6.70
2022,01,02,03,41,6.50
2022,01,02,03,42,6.40
2022,01,02,03,43,6.30
2022,01,02,03,44,6.20
2022,01,02,03,45,6.10
2022,01,02,03,46,6.00
2022,01,02,03,47,6.00
2022,01,02,03,48,6.00
2022,01,02,03,49,6.10
2022,01,02,03,50,6.10
2022,01,02,03,51,6.10
2022,01,02,03,52,6.00
2022,01,02,03,53,6.00
2022,01,02,03,54,6.00
2022,01,02,03,55,6.00
2022,01,02,03,56,6.00
2022,01,02,03,57,6.10
2022,01,02,03,58,6.10
2022,01,02,03,59,6.10
2022,01,02,04,00,6.10
2022,01,02,04,01,6.10
2022,01,02,04,02,6.20
2022,01,02,04,03,6.20
2022,01,02,04,04,6.10
2022,01,02,04,05,6.10
2022,01,02,04,06,6.10
2022,01,02,04,07,6.00
2022,01,02,04,08,6.00
2022,01,02,04,09,6.00
2022,01,02,04,10,6.00
2022,01,02,04,11,6.00
2022,01,02,04,12,6.00
2022,01,02,04,13,5.90
2022,01,02,04,14,5.80
2022,01,02,04,15,5.80
2022,01,02,04,16,5.80
2022,01,02,04,17,5.80
2022,01,02,04,18,5.80
2022,01,02,04,19,5.80
2022,01,02,04,20,5.80
2022,01,02,04,21,5.80
2022,01,02,04,22,5.80
2022,01,02,04,23,5.80
2022,01,02,04,24,5.80
2022,01,02,04,25,5.80
2022,01,02,04,26,5.70
2022,01,02,04,27,5.70
2022,01,02,04,28,5.80
2022,01,02,04,29,5.80
2022,01,02,04,30,5.80
2022,01,02,04,31,5.90
2022,01,02,04,32,5.90
2022,01,02,04,33,6.00
2022,01,02,04,34,6.00
2022,01,02,04,35,6.10
2022,01,02,04,36,6.10
2022,01,02,04,37,6.20
2022,01,02,04,38,6.20
2022,01,02,04,39,6.30
2022,01,02,04,40,6.30
2022,01,02,04,41,6.30
2022,01,02,04,42,6.30
2022,01,02,04,43,6.30
2022,01,02,04,44,6.30
2022,01,02,04,45,6.30
2022,01,02,04,46,6.30
2022,01,02,04,47,6.30
2022,01,02,04,48,6.20
2022,01,02,04,49,6.00
2022,01,02,04,50,5.90
2022,01,02,04,51,5.80
2022,01,02,04,52,5.60
2022,01,02,04,53,5.50
2022,01,02,04,54,5.40
2022,01,02,04,55,5.40
2022,01,02,04,56,5.20
2022,01,02,04,57,5.10
2022,01,02,04,58,5.00
2022,01,02,04,59,4.90
2022,01,02,05,00,4.80
2022,01,02,05,01,4.70
2022,01,02,05,02,4.60
2022,01,02,05,03,4.50
2022,01,02,05,04,4.30
2022,01,02,05,05,4.20
2022,01,02,05,06,4.10
2022,01,02,05,07,4.00
2022,01,02,05,08,3.90
2022,01,02,05,09,3.80
2022,01,02,05,10,3.80
2022,01,02,05,11,3.80
2022,01,02,05,12,3.70
2022,01,02,05,13,3.70
2022,01,02,05,14,3.60
2022,01,02,05,15,3.60
2022,01,02,05,16,3.50
2022,01,02,05,17,3.50
2022,01,02,05,18,3.40
2022,01,02,05,19,3.40
2022,01,02,05,20,3.30
2022,01,02,05,21,3.30
2022,01,02,05,22,3.30
2022,01,02,05,23,3.30
2022,01,02,05,24,3.20
2022,01,02,05,25,3.20
2022,01,02,05,26,3.20
2022,01,02,05,27,3.20
2022,01,02,05,28,3.20
2022,01,02,05,29,3.20
2022,01,02,05,30,3.20
2022,01,02,05,31,3.20
2022,01,02,05,32,3.20
2022,01,02,05,33,3.20
2022,01,02,05,34,3.20
2022,01,02,05,35,3.20
2022,01,02,05,36,3.10
2022,01,02,05,37,3.10
2022,01,02,05,38,3.00
2022,01,02,05,39,3.00
2022,01,02,05,40,2.90
2022,01,02,05,41,2.90
2022,01,02,05,42,2.90
2022,01,02,05,43,2.80
2022,01,02,05,44,2.80
2022,01,02,05,45,2.80
2022,01,02,05,46,2.70
2022,01,02,05,47,2.70
2022,01,02,05,48,2.70
2022,01,02,05,49,2.70
2022,01,02,05,50,2.70
2022,01,02,05,51,2.60
2022,01,02,05,52,2.50
2022,01,02,05,53,2.50
2022,01,02,05,54,2.40
2022,01,02,05,55,2.40
2022,01,02,05,56,2.40
2022,01,02,05,57,2.40
2022,01,02,05,58,2.40
2022,01,02,05,59,2.40
2022,01,02,06,00,2.40
2022,01,02,06,01,2.40
2022,01,02,06,02,2.40
2022,01,02,06,03,2.40
2022,01,02,06,04,2.40
2022,01,02,06,05,2.40
2022,01,02,06,06,2.40
2022,01,02,06,07,2.40
2022,01,02,06,08,2.40
2022,01,02,06,09,2.40
2022,01,02,06,10,2.40
2022,01,02,06,11,2.40
2022,01,02,06,12,2.40
2022,01,02,06,13,2.40
2022,01,02,06,14,2.40
2022,01,02,06,15,2.40
2022,01,02,06,16,2.50
2022,01,02,06,17,2.60
2022,01,02,06,18,2.70
2022,01,02,06,19,2.70
2022,01,02,06,20,2.70
2022,01,02,06,21,2.70
2022,01,02,06,22,2.70
2022,01,02,06,23,2.60
2022,01,02,06,24,2.50
2022,01,02,06,25,2.50
2022,01,02,06,26,2.50
2022,01,02,06,27,2.50
2022,01,02,06,28,2.50
2022,01,02,06,29,2.50
2022,01,02,06,30,2.50
2022,01,02,06,31,2.50
2022,01,02,06,32,2.50
2022,01,02,06,33,2.50
2022,01,02,06,34,2.60
2022,01,02,06,35,2.70
2022,01,02,06,36,2.70
2022,01,02,06,37,2.70
2022,01,02,06,38,2.60
2022,01,02,06,39,2.60
2022,01,02,06,40,2.60
2022,01,02,06,41,2.50
2022,01,02,06,42,2.40
2022,01,02,06,43,2.30
2022,01,02,06,44,2.30
2022,01,02,06,45,2.30
2022,01,02,06,46,2.30
2022,01,02,06,47,2.20
2022,01,02,06,48,2.20
2022,01,02,06,49,2.20
2022,01,02,06,50,2.30
2022,01,02,06,51,2.30
2022,01,02,06,52,2.30
2022,01,02,06,53,2.30
2022,01,02,06,54,2.30
2022,01,02,06,55,2.30
2022,01,02,06,56,2.30
2022,01,02,06,57,2.30
2022,01,02,06,58,2.20
2022,01,02,06,59,2.20
2022,01,02,07,00,2.20
2022,01,02,07,01,2.20
2022,01,02,07,02,2.30
2022,01,02,07,03,2.50
2022,01,02,07,04,2.60
2022,01,02,07,05,2.60
2022,01,02,07,06,2.60
2022,01,02,07,07,2.50
2022,01,02,07,08,2.50
2022,01,02,07,09,2.40
2022,01,02,07,10,2.40
2022,01,02,07,11,2.30
2022,01,02,07,12,2.30
2022,01,02,07,13,2.20
2022,01,02,07,14,2.20
2022,01,02,07,15,2.20
2022,01,02,07,16,2.10
2022,01,02,07,17,2.10
2022,01,02,07,18,2.10
2022,01,02,07,19,2.10
2022,01,02,07,20,2.10
2022,01,02,07,21,2.10
2022,01,02,07,22,2.00
2022,01,02,07,23,1.90
2022,01,02,07,24,1.90
2022,01,02,07,25,1.90
2022,01,02,07,26,1.80
2022,01,02,07,27,1.80
2022,01,02,07,28,1.80
2022,01,02,07,29,1.80
2022,01,02,07,30,1.80
2022,01,02,07,31,1.80
2022,01,02,07,32,1.80
2022,01,02,07,33,1.80
2022,01,02,07,34,1.80
2022,01,02,07,35,1.80
2022,01,02,07,36,1.80
2022,01,02,07,37,1.80
2022,01,02,07,38,1.80
2022,01,02,07,39,1.70
2022,01,02,07,40,1.70
2022,01,02,07,41,1.70
2022,01,02,07,42,1.70
2022,01,02,07,43,1.70
2022,01,02,07,44,1.70
2022,01,02,07,45,1.70
2022,01,02,07,46,1.60
2022,01,02,07,47,1.60
2022,01,02,07,48,1.60
2022,01,02,07,49,1.60
2022,01,02,07,50,1.60
2022,01,02,07,51,1.60
2022,01,02,07,52,1.60
2022,01,02,07,53,1.60
2022,01,02,07,54,1.50
2022,01,02,07,55,1.50
2022,01,02,07,56,1.50
2022,01,02,07,57,1.50
2022,01,02,07,58,1.50
2022,01,02,07,59,1.50
2022,01,02,08,00,1.50
2022,01,02,08,01,1.50
2022,01,02,08,02,1.50
2022,01,02,08,03,1.40
2022,01,02,08,04,1.40
2022,01,02,08,05,1.40
2022,01,02,08,06,1.40
2022,01,02,08,07,1.40
2022,01,02,08,08,1.40
2022,01,02,08,09,1.40
2022,01,02,08,10,1.40
2022,01,02,08,11,1.40
2022,01,02,08,12,1.40
2022,01,02,09,03,2.70
2022,01,02,09,04,2.70
2022,01,02,09,05,2.80
2022,01,02,09,06,2.80
2022,01,02,09,07,2.80
2022,01,02,09,08,2.90
2022,01,02,09,09,2.90
2022,01,02,09,10,2.90
2022,01,02,09,11,2.90
2022,01,02,09,12,2.90
2022,01,02,09,13,2.90
2022,01,02,09,14,2.90
2022,01,02,09,15,3.00
2022,01,02,09,16,3.00
2022,01,02,09,17,3.00
2022,01,02,09,18,3.00
2022,01,02,09,19,3.00
2022,01,02,09,20,3.00
2022,01,02,09,21,3.00
2022,01,02,09,22,2.90
2022,01,02,09,23,2.90
2022,01,02,09,24,2.80
2022,01,02,09,25,2.90
2022,01,02,09,26,2.90
2022,01,02,09,27,3.00
2022,01,02,09,28,3.00
2022,01,02,09,29,3.00
2022,01,02,09,30,3.00
2022,01,02,09,31,3.00
2022,01,02,09,32,3.00
2022,01,02,09,33,3.00
2022,01,02,09,34,3.00
2022,01,02,09,35,3.10
2022,01,02,09,36,3.10
2022,01,02,09,37,3.10
2022,01,02,09,38,3.10
2022,01,02,09,39,3.10
2022,01,02,09,40,3.10
2022,01,02,09,41,3.20
2022,01,02,09,42,3.20
2022,01,02,09,43,3.20
2022,01,02,09,44,3.20
2022,01,02,09,45,3.20
2022,01,02,09,46,3.20
2022,01,02,09,47,3.20
2022,01,02,09,48,3.20
2022,01,02,09,49,3.20
2022,01,02,09,50,3.20
2022,01,02,09,51,3.20
2022,01,02,09,52,3.20
2022,01,02,09,53,3.10
2022,01,02,09,54,3.10
2022,01,02,09,55,3.10
2022,01,02,09,56,3.10
2022,01,02,09,57,3.20
2022,01,02,09,58,3.30
2022,01,02,09,59,3.30
2022,01,02,10,00,3.30
2022,01,02,10,01,3.20
2022,01,02,10,02,3.20
2022,01,02,10,03,3.10
2022,01,02,10,04,3.00
2022,01,02,10,05,3.10
2022,01,02,10,06,3.00
2022,01,02,10,07,3.00
2022,01,02,10,08,3.00
2022,01,02,10,09,2.90
2022,01,02,10,10,2.90
2022,01,02,10,11,2.90
2022,01,02,10,12,3.00
2022,01,02,10,13,3.00
2022,01,02,10,14,3.00
2022,01,02,10,15,3.00
2022,01,02,10,16,3.00
2022,01,02,10,17,3.00
2022,01,02,10,18,3.10
2022,01,02,10,19,3.20
2022,01,02,10,20,3.20
2022,01,02,10,21,3.20
2022,01,02,10,22,3.30
2022,01,02,10,23,3.30
2022,01,02,10,24,3.30
2022,01,02,10,25,3.30
2022,01,02,10,26,3.30
2022,01,02,10,27,3.40
2022,01,02,10,28,3.40
2022,01,02,10,29,3.30
2022,01,02,10,30,3.30
2022,01,02,10,31,3.30
2022,01,02,10,32,3.30
2022,01,02,10,33,3.30
2022,01,02,10,34,3.20
2022,01,02,10,35,3.20
2022,01,02,10,36,3.30
2022,01,02,10,37,3.40
2022,01,02,10,38,3.40
2022,01,02,10,39,3.50
2022,01,02,10,40,3.50
2022,01,02,10,41,3.50
2022,01,02,10,42,3.40
2022,01,02,10,43,3.40
2022,01,02,10,44,3.30
2022,01,02,10,45,3.30
2022,01,02,10,46,3.30
2022,01,02,10,47,3.30
2022,01,02,10,48,3.30
2022,01,02,10,49,3.30
2022,01,02,10,50,3.30
2022,01,02,10,51,3.30
2022,01,02,10,52,3.30
2022,01,02,10,53,3.30
2022,01,02,10,54,3.30
2022,01,02,10,55,3.20
2022,01,02,10,56,3.20
2022,01,02,10,57,3.20
2022,01,02,10,58,3.20
2022,01,02,10,59,3.20
2022,01,02,11,00,3.20
2022,01,02,11,01,3.20
2022,01,02,11,02,3.60
2022,01,02,11,03,3.60
2022,01,02,11,04,3.50
2022,01,02,11,05,3.50
2022,01,02,11,06,3.40
2022,01,02,11,07,3.40
2022,01,02,11,08,3.40
2022,01,02,11,09,3.30
2022,01,02,11,10,3.30
2022,01,02,11,11,3.30
2022,01,02,11,12,3.30
2022,01,02,11,13,3.30
2022,01,02,11,14,3.30
2022,01,02,11,15,3.30
2022,01,02,11,16,3.30
2022,01,02,11,17,3.30
2022,01,02,11,18,3.30
2022,01,02,11,19,3.40
2022,01,02,11,20,3.50
2022,01,02,11,21,3.60
2022,01,02,11,22,3.60
2022,01,02,11,23,3.60
2022,01,02,11,24,3.60
2022,01,02,11,25,3.60
2022,01,02,11,26,3.60
2022,01,02,11,27,3.60
2022,01,02,11,28,3.60
2022,01,02,11,29,3.60
2022,01,02,11,30,3.50
2022,01,02,11,31,3.50
2022,01,02,11,32,3.50
2022,01,02,11,33,3.50
2022,01,02,11,34,3.60
2022,01,02,11,35,3.70
2022,01,02,11,36,3.70
2022,01,02,11,37,3.70
2022,01,02,11,38,3.70
2022,01,02,11,39,3.70
2022,01,02,11,40,3.70
2022,01,02,11,41,3.70
2022,01,02,11,42,3.70
2022,01,02,11,43,3.70
2022,01,02,11,44,3.80
2022,01,02,11,45,3.70
2022,01,02,11,46,3.70
2022,01,02,11,47,3.60
2022,01,02,11,48,3.60
2022,01,02,11,49,3.60
2022,01,02,11,50,3.60
2022,01,02,11,51,3.50
2022,01,02,11,52,3.50
2022,01,02,11,53,3.50
2022,01,02,11,54,3.50
2022,01,02,11,55,3.50
2022,01,02,11,56,3.60
2022,01,02,11,57,3.60
2022,01,02,11,58,3.70
2022,01,02,11,59,3.70
2022,01,02,12,00,3.60
2022,01,02,12,01,3.60
2022,01,02,12,02,3.60
2022,01,02,12,03,3.60
2022,01,02,12,04,3.60
2022,01,02,12,05,3.60
2022,01,02,12,06,3.80
2022,01,02,12,07,3.80
2022,01,02,12,08,4.00
2022,01,02,12,09,4.00
2022,01,02,12,10,4.10
2022,01,02,12,11,4.00
2022,01,02,12,12,4.00
2022,01,02,12,13,3.90
2022,01,02,12,14,3.90
2022,01,02,12,15,3.90
2022,01,02,12,16,4.00
2022,01,02,12,17,4.10
2022,01,02,12,18,4.10
2022,01,02,12,19,4.10
2022,01,02,12,20,4.10
2022,01,02,12,21,4.10
2022,01,02,12,22,4.20
2022,01,02,12,23,4.20
2022,01,02,12,24,4.30
2022,01,02,12,25,4.40
2022,01,02,12,26,4.50
2022,01,02,12,27,4.50
2022,01,02,12,28,4.50
2022,01,02,12,29,4.50
2022,01,02,12,30,4.50
2022,01,02,12,31,4.60
2022,01,02,12,32,4.60
2022,01,02,12,33,4.70
2022,01,02,12,34,4.70
2022,01,02,12,35,4.80
2022,01,02,12,36,4.90
2022,01,02,12,37,4.90
2022,01,02,12,38,4.90
2022,01,02,12,39,4.90
2022,01,02,12,40,4.90
2022,01,02,12,41,4.80
2022,01,02,12,42,4.80
2022,01,02,12,43,4.70
2022,01,02,12,44,4.70
2022,01,02,12,45,4.70
2022,01,02,12,46,4.70
2022,01,02,12,47,4.80
2022,01,02,12,48,4.80
2022,01,02,12,49,4.90
2022,01,02,12,50,4.90
2022,01,02,12,51,4.80
2022,01,02,12,52,4.70
2022,01,02,12,53,4.60
2022,01,02,12,54,4.50
2022,01,02,12,55,4.30
2022,01,02,12,56,4.20
2022,01,02,12,57,4.20
2022,01,02,12,58,4.20
2022,01,02,12,59,4.10
2022,01,02,13,00,4.10
2022,01,02,13,01,4.10
2022,01,02,13,02,4.10
2022,01,02,13,03,4.00
2022,01,02,13,04,4.00
2022,01,02,13,05,4.00
2022,01,02,13,06,4.00
2022,01,02,13,07,3.90
2022,01,02,13,08,3.90
2022,01,02,13,09,3.90
2022,01,02,13,10,3.90
2022,01,02,13,11,4.00
2022,01,02,13,12,4.20
2022,01,02,13,13,4.40
2022,01,02,13,14,4.40
2022,01,02,13,15,4.50
2022,01,02,13,16,4.50
2022,01,02,13,17,4.50
2022,01,02,13,18,4.40
2022,01,02,13,19,4.40
2022,01,02,13,20,4.40
2022,01,02,13,21,4.40
2022,01,02,13,22,4.40
2022,01,02,13,23,4.30
2022,01,02,13,24,4.20
2022,01,02,13,25,4.20
2022,01,02,13,26,4.10
2022,01,02,13,27,4.10
2022,01,02,13,28,4.10
2022,01,02,13,29,4.10
2022,01,02,13,30,4.00
2022,01,02,13,31,4.00
2022,01,02,13,32,4.10
2022,01,02,13,33,4.20
2022,01,02,13,34,4.20
2022,01,02,13,35,4.30
2022,01,02,13,36,4.30
2022,01,02,13,37,4.30
2022,01,02,13,38,4.30
2022,01,02,13,39,4.30
2022,01,02,13,40,4.30
2022,01,02,13,41,4.30
2022,01,02,13,42,4.30
2022,01,02,13,43,4.40
2022,01,02,13,44,4.40
2022,01,02,13,45,4.40
2022,01,02,13,46,4.40
2022,01,02,13,47,4.50
2022,01,02,13,48,4.60
2022,01,02,13,49,4.70
2022,01,02,13,50,4.70
2022,01,02,13,51,4.70
2022,01,02,13,52,4.70
2022,01,02,13,53,4.60
2022,01,02,13,54,4.60
2022,01,02,13,55,4.60
2022,01,02,13,56,4.70
2022,01,02,13,57,4.70
2022,01,02,13,58,4.70
2022,01,02,13,59,4.70
2022,01,02,14,00,4.70
2022,01,02,14,01,4.60
2022,01,02,14,02,4.40
2022,01,02,14,03,4.30
2022,01,02,14,04,4.20
2022,01,02,14,05,4.20
2022,01,02,14,06,4.10
2022,01,02,14,07,4.10
2022,01,02,14,08,4.10
2022,01,02,14,09,4.10
2022,01,02,14,10,4.00
2022,01,02,14,11,4.00
2022,01,02,14,12,4.00
2022,01,02,14,13,4.10
2022,01,02,14,14,4.10
2022,01,02,14,15,4.10
2022,01,02,14,16,4.00
2022,01,02,14,17,4.00
2022,01,02,14,18,4.10
2022,01,02,14,19,4.10
2022,01,02,14,20,4.10
2022,01,02,14,21,4.10
2022,01,02,14,22,4.10
2022,01,02,14,23,4.10
2022,01,02,14,24,4.10
2022,01,02,14,25,4.10
2022,01,02,14,26,4.10
2022,01,02,14,27,4.20
2022,01,02,14,28,4.20
2022,01,02,14,29,4.20
2022,01,02,14,30,4.20
2022,01,02,14,31,4.10
2022,01,02,14,32,4.10
2022,01,02,14,33,4.00
2022,01,02,14,34,4.00
2022,01,02,14,35,4.00
2022,01,02,14,36,3.90
2022,01,02,14,37,3.80
2022,01,02,14,38,3.80
2022,01,02,14,39,3.80
2022,01,02,14,40,3.80
2022,01,02,14,41,3.80
2022,01,02,14,42,3.80
2022,01,02,14,43,3.90
2022,01,02,14,44,3.80
2022,01,02,14,45,3.80
2022,01,02,14,46,3.80
2022,01,02,14,47,3.80
2022,01,02,14,48,3.70
2022,01,02,14,49,3.80
2022,01,02,14,50,3.90
2022,01,02,14,51,4.00
2022,01,02,14,52,4.10
2022,01,02,14,53,4.30
2022,01,02,14,54,4.30
2022,01,02,14,55,4.20
2022,01,02,14,56,4.10
2022,01,02,14,57,4.10
2022,01,02,14,58,4.00
2022,01,02,14,59,3.90
2022,01,02,15,00,3.90
2022,01,02,15,01,3.90
2022,01,02,15,02,4.00
2022,01,02,15,03,4.00
2022,01,02,15,04,4.10
2022,01,02,15,05,4.10
2022,01,02,15,06,4.10
2022,01,02,15,07,4.10
2022,01,02,15,08,4.10
2022,01,02,15,09,4.00
2022,01,02,15,10,3.90
2022,01,02,15,11,3.90
2022,01,02,15,12,3.90
2022,01,02,15,13,3.90
2022,01,02,15,14,3.90
2022,01,02,15,15,3.90
2022,01,02,15,16,3.90
2022,01,02,15,17,4.00
2022,01,02,15,18,4.00
2022,01,02,15,19,4.00
2022,01,02,15,20,4.10
2022,01,02,15,21,4.00
2022,01,02,15,22,4.00
2022,01,02,15,23,3.90
2022,01,02,15,24,4.00
2022,01,02,15,25,4.00
2022,01,02,15,26,4.00
2022,01,02,15,27,3.90
2022,01,02,15,28,3.80
2022,01,02,15,29,3.80
2022,01,02,15,30,3.80
2022,01,02,15,31,3.80
2022,01,02,15,32,3.80
2022,01,02,15,33,3.90
2022,01,02,15,34,3.90
2022,01,02,15,35,3.90
2022,01,02,15,36,3.90
2022,01,02,15,37,3.90
2022,01,02,15,38,3.90
2022,01,02,15,39,3.90
2022,01,02,15,40,3.80
2022,01,02,15,41,3.80
2022,01,02,15,42,3.70
2022,01,02,15,43,3.70
2022,01,02,15,44,3.70
2022,01,02,15,45,3.70
2022,01,02,15,46,3.60
2022,01,02,15,47,3.60
2022,01,02,15,48,3.60
2022,01,02,15,49,3.60
2022,01,02,15,50,3.60
2022,01,02,15,51,3.60
2022,01,02,15,52,3.60
2022,01,02,15,53,3.50
2022,01,02,15,54,3.50
2022,01,02,15,55,3.50
2022,01,02,15,56,3.50
2022,01,02,15,57,3.50
2022,01,02,15,58,3.50
2022,01,02,15,59,3.50
2022,01,02,16,00,3.50
2022,01,02,16,01,3.60
2022,01,02,16,02,3.60
2022,01,02,16,03,3.60
2022,01,02,16,04,3.60
2022,01,02,16,05,3.70
2022,01,02,16,06,3.80
2022,01,02,16,07,3.90
2022,01,02,16,08,3.90
2022,01,02,16,09,4.00
2022,01,02,16,10,4.00
2022,01,02,16,11,4.10
2022,01,02,16,12,4.20
2022,01,02,16,13,4.30
2022,01,02,16,14,4.40
2022,01,02,16,15,4.40
2022,01,02,16,16,4.30
2022,01,02,16,17,4.30
2022,01,02,16,18,4.30
2022,01,02,16,19,4.30
2022,01,02,16,20,4.30
2022,01,02,16,21,4.30
2022,01,02,16,22,4.30
2022,01,02,16,23,4.30
2022,01,02,16,24,4.40
2022,01,02,16,25,4.40
2022,01,02,16,26,4.50
2022,01,02,16,27,4.50
2022,01,02,16,28,4.50
2022,01,02,16,29,4.50
2022,01,02,16,30,4.40
2022,01,02,16,31,4.40
2022,01,02,16,32,4.40
2022,01,02,16,33,4.40
2022,01,02,16,34,4.30
2022,01,02,16,35,4.30
2022,01,02,16,36,4.30
2022,01,02,16,37,4.30
2022,01,02,16,38,4.30
2022,01,02,16,39,4.30
2022,01,02,16,40,4.20
2022,01,02,16,41,4.20
2022,01,02,16,42,4.10
2022,01,02,16,43,4.00
2022,01,02,16,44,4.00
2022,01,02,16,45,3.90
2022,01,02,16,46,3.90
2022,01,02,16,47,3.80
2022,01,02,16,48,3.80
2022,01,02,16,49,3.80
2022,01,02,16,50,3.80
2022,01,02,16,51,3.80
2022,01,02,16,52,3.80
2022,01,02,16,53,3.80
2022,01,02,16,54,3.80
2022,01,02,16,55,3.80
2022,01,02,16,56,3.90
2022,01,02,16,57,3.90
2022,01,02,16,58,3.90
2022,01,02,16,59,3.80
2022,01,02,17,00,3.90
2022,01,02,17,01,3.90
2022,01,02,17,02,3.90
2022,01,02,17,03,3.90
2022,01,02,17,04,3.90
2022,01,02,17,05,3.90
2022,01,02,17,06,3.80
2022,01,02,17,07,3.90
2022,01,02,17,08,3.90
2022,01,02,17,09,3.80
2022,01,02,17,10,3.70
2022,01,02,17,11,3.60
2022,01,02,17,12,3.60
2022,01,02,17,13,3.60
2022,01,02,17,14,3.70
2022,01,02,17,15,3.70
2022,01,02,17,16,3.70
2022,01,02,17,17,3.70
2022,01,02,17,18,3.70
2022,01,02,17,19,3.70
2022,01,02,17,20,3.80
2022,01,02,17,21,3.90
2022,01,02,17,22,4.00
2022,01,02,17,23,4.00
2022,01,02,17,24,3.90
2022,01,02,17,25,3.70
2022,01,02,17,26,3.60
2022,01,02,17,27,3.50
2022,01,02,17,28,3.50
2022,01,02,17,29,3.50
2022,01,02,17,30,3.60
2022,01,02,17,31,3.60
2022,01,02,17,32,3.50
2022,01,02,17,33,3.40
2022,01,02,17,34,3.40
2022,01,02,17,35,3.30
2022,01,02,17,36,3.30
2022,01,02,17,37,3.30
2022,01,02,17,38,3.20
2022,01,02,17,39,3.30
2022,01,02,17,40,3.30
2022,01,02,17,41,3.30
2022,01,02,17,42,3.30
2022,01,02,17,43,3.30
2022,01,02,17,44,3.30
2022,01,02,17,45,3.30
2022,01,02,17,46,3.30
2022,01,02,17,47,3.30
2022,01,02,17,48,3.30
2022,01,02,17,49,3.30
2022,01,02,17,50,3.30
2022,01,02,17,51,3.30
2022,01,02,17,52,3.20
2022,01,02,17,53,3.20
2022,01,02,17,54,3.20
2022,01,02,17,55,3.30
2022,01,02,17,56,3.30
2022,01,02,17,57,3.40
2022,01,02,17,58,3.40
2022,01,02,17,59,3.40
2022,01,02,18,00,3.40
2022,01,02,18,01,3.40
2022,01,02,18,02,3.40
2022,01,02,18,03,3.40
2022,01,02,18,04,3.40
2022,01,02,18,05,3.40
2022,01,02,18,06,3.40
2022,01,02,18,07,3.40
2022,01,02,18,08,3.30
2022,01,02,18,09,3.30
2022,01,02,18,10,3.20
2022,01,02,18,11,3.20
2022,01,02,18,12,3.20
2022,01,02,18,13,3.20
2022,01,02,18,14,3.20
2022,01,02,18,15,3.20
2022,01,02,18,16,3.30
2022,01,02,18,17,3.30
2022,01,02,18,18,3.30
2022,01,02,18,19,3.30
2022,01,02,18,20,3.30
2022,01,02,18,21,3.30
2022,01,02,18,22,3.30
2022,01,02,18,23,3.20
2022,01,02,18,24,3.20
2022,01,02,18,25,3.20
2022,01,02,18,26,3.20
2022,01,02,18,27,3.20
2022,01,02,18,28,3.10
2022,01,02,18,29,3.10
2022,01,02,18,30,3.00
2022,01,02,18,31,3.00
2022,01,02,18,32,2.90
2022,01,02,18,33,2.90
2022,01,02,18,34,2.90
2022,01,02,18,35,2.90
2022,01,02,18,36,2.90
2022,01,02,18,37,2.90
2022,01,02,18,38,2.80
2022,01,02,18,39,2.80
2022,01,02,18,40,2.90
2022,01,02,18,41,2.90
2022,01,02,18,42,2.90
2022,01,02,18,43,2.90
2022,01,02,18,44,3.00
2022,01,02,18,45,3.10
2022,01,02,18,46,3.10
2022,01,02,18,47,3.10
2022,01,02,18,48,3.00
2022,01,02,18,49,3.10
2022,01,02,18,50,3.10
2022,01,02,18,51,3.10
2022,01,02,18,52,3.10